Location: Unspecified
(0.0000°N, 0.0000°E)
Time: 19:48:37
(UTC+00:00)

Explorer 7 - All Passes

Search period start: 25 April 2015 00:00
Search period end: 05 May 2015 00:00
Orbit: 489 x 695 km, 50.3° (Epoch: 25 April)

Date Brightness Start Highest point End Pass type
(mag) Time Alt. Az. Time Alt. Az. Time Alt. Az.
25 Apr - 02:35:18 10° SE 02:36:17 11° SE 02:37:32 10° ESE night (unlit)
25 Apr - 04:13:01 10° WSW 04:16:55 40° NW 04:21:02 10° NNE visible
25 Apr - 14:37:38 10° N 14:41:03 20° NE 14:44:29 10° E daylight
25 Apr - 16:17:48 10° WNW 16:21:49 28° SW 16:25:33 10° S daylight
26 Apr - 02:41:11 10° S 02:44:28 25° SE 02:48:00 10° ENE visible
26 Apr - 04:22:12 10° W 04:25:10 18° NW 04:28:06 10° N visible
26 Apr - 14:44:47 10° NNW 14:49:18 43° NE 14:53:36 10° SE daylight
26 Apr - 16:27:45 10° W 16:29:59 13° SW 16:31:57 10° SSW daylight
27 Apr - 02:48:38 10° SSW 02:52:35 60° SE 02:56:46 10° NE visible
27 Apr - 14:52:39 10° NW 14:57:26 84° SW 15:01:56 10° SE daylight
28 Apr - 02:56:47 10° SW 03:00:41 53° NW 03:04:49 10° NNE visible
28 Apr - 13:21:44 10° NNE 13:24:42 17° NE 13:27:47 10° E daylight
28 Apr - 15:01:08 10° WNW 15:05:32 37° SW 15:09:40 10° SSE daylight
29 Apr - 01:25:30 10° S 01:28:16 19° SE 01:31:13 10° E night (unlit)
29 Apr - 03:05:40 10° WSW 03:08:53 22° NW 03:12:10 10° N night (unlit)
29 Apr - 13:28:34 10° NNW 13:32:57 34° NE 13:37:12 10° ESE daylight
29 Apr - 15:10:28 10° W 15:13:40 17° SW 15:16:35 10° SSW daylight
30 Apr - 01:32:38 10° SSW 01:36:21 44° SE 01:40:18 10° NE night (unlit)
30 Apr - 13:36:14 10° NNW 13:41:05 77° NE 13:45:42 10° SE daylight
01 May - 01:40:33 10° SW 01:44:26 70° NW 01:48:32 10° NNE night (unlit)
01 May - 12:06:00 10° NNE 12:08:16 13° NE 12:10:45 10° E daylight
01 May - 13:44:28 10° NW 13:49:10 48° SW 13:53:37 10° SSE daylight
02 May - 00:09:58 10° SSE 00:11:58 14° SE 00:14:10 10° E night (unlit)
02 May - 01:49:10 10° WSW 01:52:34 28° NW 01:56:05 10° N night (unlit)
02 May - 12:12:22 10° N 12:16:31 28° NE 12:20:37 10° ESE daylight
02 May - 13:53:26 10° WNW 13:57:16 23° SW 14:00:51 10° S daylight
03 May - 00:16:38 10° SSW 00:20:05 32° SE 00:23:42 10° ENE night (unlit)
03 May - 01:59:04 10° WNW 02:00:49 12° NW 02:02:23 10° NNW night (unlit)
03 May - 12:19:48 10° NNW 12:24:40 60° NE 12:29:20 10° SE daylight
03 May - 14:04:21 10° WSW 14:05:27 10° SW 14:06:13 10° SW daylight
04 May - 00:24:19 10° SW 00:28:09 86° SE 00:32:09 10° NE night (unlit)
04 May - 10:50:46 10° NE 10:51:44 11° NE 10:53:03 10° ENE daylight
04 May - 12:27:50 10° NW 12:32:43 63° SW 12:37:24 10° SSE daylight
04 May - 22:55:12 10° SE 22:55:36 10° SE 22:56:15 10° ESE night (unlit)
